Regional Weather Roundup
Issued by NWS Boston, MA

Home | Current Version | Previous Version | Text Only | Print | Product List | Glossary On
Versions: 1 2 3 4 5 6 7 8 9 10 11 12 13 14 15 16 17 18 19 20 21 22 23 24 25 26 27 28 29 30 31 32 33 34 35 36 37 38 39 40 41 42 43 44 45 46 47 48 49 50
000
ASUS41 KBOX 041810
RWRBOX

REGIONAL WEATHER ROUNDUP
NATIONAL WEATHER SERVICE TAUNTON MA
200 PM EDT MON MAY 04 2015

NOTE:  "FAIR" INDICATES FEW OR NO CLOUDS BELOW 12,000 FEET WITH NO
SIGNIFICANT WEATHER AND/OR OBSTRUCTIONS TO VISIBILITY.  THE FOLLOWING
OBSERVATION LOCATIONS DO NOT REPORT PRESENT WEATHER...PROVINCETOWN...
SMITHFIELD...BLOCK ISLAND...KEENE...AND OXFORD.

MAZALL-041900-
EASTERN MASSACHUSETTS

CITY           SKY/WX    TMP DP  RH WIND       PRES   REMARKS
BOSTON         MOSUNNY   80  43  26 S10       30.11F
6HR MIN TEMP:  56; 6HR MAX TEMP:  83;

BEVERLY        MOSUNNY   77  44  30 SE13      30.10F
LAWRENCE       PTSUNNY   84  39  20 SW15G25   30.10F
BEDFORD        MOSUNNY   84  37  18 S15       30.09F
BLUE HILL        N/A     81  42  25 S13G28    30.13F
NORWOOD        MOSUNNY   83  38  20 S10G22    30.11F
MARSHFIELD     SUNNY     82  46  28 SW9G17    30.15F
PLYMOUTH       SUNNY     72  49  44 S9G21     30.18F
TAUNTON        SUNNY     79  45  29 S10G18    30.15F
NEW BEDFORD    SUNNY     71  47  42 S17G23    30.18F
$$

MAZALL-041900-
CAPE COD AND THE ISLANDS

CITY           SKY/WX    TMP DP  RH WIND       PRES   REMARKS
FALMOUTH       SUNNY     68  41  37 SW12      30.19
HYANNIS        SUNNY     62  54  74 S16       30.19F
CHATHAM        SUNNY     60  52  74 SW14G28   30.23F
PROVINCETOWN   SUNNY     66  48  52 S16       30.18F
NANTUCKET      SUNNY     58  50  75 S13       30.24F
MARTHAS VNYRD  MOSUNNY  N/A N/A N/A SW21G28   30.22F
$$

MAZALL-041900-
CENTRAL AND WESTERN MASSACHUSETTS

CITY           SKY/WX    TMP DP  RH WIND       PRES   REMARKS
WORCESTER      PTSUNNY   80  34  19 W21G29    30.14F
6HR MIN TEMP:  62; 6HR MAX TEMP:  81;

FITCHBURG      MOSUNNY   83  35  18 SW8G18    30.11F
ORANGE         PTSUNNY   82  35  18 SW16      30.11F
SPRINGFIELD    MOSUNNY   84  41  22 S22       30.09F
WESTFIELD      PTSUNNY   84  35  17 SW10      30.10F
NORTH ADAMS    MOSUNNY   81  36  19 SW16      30.10F
PITTSFIELD     PTSUNNY   79  37  22 W21       30.12F
$$

RIZALL-041900-
RHODE ISLAND

CITY           SKY/WX    TMP DP  RH WIND       PRES   REMARKS
PROVIDENCE     MOSUNNY   67  49  52 SE17      30.16F
6HR MIN TEMP:  52; 6HR MAX TEMP:  67;

NEWPORT        SUNNY     64  49  57 S14       30.20S
BLOCK ISLAND   SUNNY     61  45  55 SW22      30.21F
SMITHFIELD     SUNNY     77  48  36 SE9G16    30.15F
WESTERLY       SUNNY     66  48  52 S9        30.21S
$$

CTZALL-041900-
CONNECTICUT

CITY           SKY/WX    TMP DP  RH WIND       PRES   REMARKS
BRADLEY INTL   MOSUNNY   86  35  16 S16G26    30.10F
6HR MIN TEMP:  55; 6HR MAX TEMP:  87;

HARTFORD       MOSUNNY   83  42  23 S14G24    30.12F
BRIDGEPORT     SUNNY     65  53  65 E7        30.18F
DANBURY        MOSUNNY   81  39  22 S14G30    30.16F
GROTON         SUNNY     62  49  62 S7        30.19F
NEW HAVEN      SUNNY     70  51  51 SE8       30.18F
CHESTER        NOT AVBL
MERIDEN        FAIR      82  45  27 S14       30.15F
WILLIMANTIC    PTSUNNY   81  36  19 S14G22    30.14F
OXFORD         MOSUNNY   81  43  26 SW21G30   30.17F
$$

MEZ002-015-021-024-NHZ003-005-008-011-012-014-VTZ005-008-041900-
NORTHERN NEW ENGLAND

CITY           SKY/WX    TMP DP  RH WIND       PRES   REMARKS
PORTLAND ME    MOSUNNY   72  48  42 S13       30.08F
6HR MIN TEMP:  52; 6HR MAX TEMP:  74;

BANGOR ME      MOSUNNY   77  45  32 S17       30.05F
CONCORD NH     MOSUNNY   84  33  16 W16G23    30.08F
MANCHESTER NH  MOSUNNY   84  32  15 W7G21     30.07F
NASHUA NH      MOSUNNY   85  36  17 W8G20     30.10F
PORTSMOUTH NH  PTSUNNY   77  47  34 SE12      30.07F
JAFFREY NH     PTSUNNY   79  36  21 S9G22     30.12F
KEENE NH       SUNNY     82  36  18 S14G21    30.09F
BURLINGTON VT  MOSUNNY   83  39  21 S15G24    30.00F
MT. WASHINGTON MOSUNNY   48  30  49 W31G53      N/A
$$

NYZ052-076-041900-
EASTERN NEW YORK

CITY           SKY/WX    TMP DP  RH WIND       PRES   REMARKS
ALBANY         MOSUNNY   84  37  18 S9G17     30.07F
6HR MIN TEMP:  62; 6HR MAX TEMP:  84;

NEW YORK CITY  MOSUNNY   80  46  30 S14       30.17S
6HR MIN TEMP:  56; 6HR MAX TEMP:  82;

$$

ANZALL-041900-
MARINE OBSERVATIONS

STATION/POSITION TIME  TEMP    WIND        PRES    VSBY  WAVE
                       AIR SEA DIR/SP/G                  HT/PER
                 (UTC) (F)     (DEG/KT/KT) (MB)    (MI)  (FT/S)
BOSTON BUOY      1750   56 49  160/ 14/ 16   N/A           2/11
BUZZARDS BAY     1700          200/ 15/ 16   N/A
NANTUCKET SOUND  1750   54 49  200/ 14/ 16   N/A           2/ 3
MASS BAY-STELLWA 1704   52 49  160/ 10/ 12   N/A    1 7/8  2/ 8
ISLE OF SHOALS   1700   65     170/ 22/ 22   N/A
S OF BLOCK IS    1708      47                N/A           3/ 8
$$

......................KEY.........................
  SKY/WX - SKY CONDITION/PRESENT WEATHER
  TMP    - TEMPERATURE IN FAHRENHEIT
  DWPT   - DEWPOINT IN FAHRENHEIT
  RH     - RELATIVE HUMIDITY IN PERCENT
  WIND   - DIRECTION AND SPEED IN MPH
  PRES   - MEAN SEA LEVEL PRESSURE IN INCHES OF HG
  WCI    - WIND CHILL INDEX
  VSB    - VISIBILITY IN MILES
  HX     - HEAT INDEX
  TC     - TEMPERATURE IN CELSIUS
  VRB    - VARIABLE WIND DIRECTION
  N/A    - NOT AVAILABLE


USA.gov is the U.S. government's official web portal to all federal, state and local government web resources and services.